Location: Wavehorne
(51.0500°N, 0.8333°E)
Time: 01:54:11
(UTC+00:00)

AQUA - Pass Details

Date: 20 June 2021
Orbit: 701 x 704 km, 98.2° (Epoch: 25 July)

Event Time Altitude Azimuth Distance (km) Brightness Sun altitude
Rises 01:43:41 0° 17° (NNE) 3,107 9.2 -12.0°
Reaches altitude 10° 01:46:00 10° 21° (NNE) 2,183 7.9 -11.8°
Maximum altitude 01:50:43 59° 101° (ESE) 818 4.2 -11.5°
Enters shadow 01:55:03 12° 180° (S) 2,029 5.7 -11.2°
